Theta_e
313 312 312 311 311 311 312 312 313 315 316 318 320 321 319 319 316 314 314 316 316 316 318 316 317 324 326 326 325 326 327 327 327 328 327 327 327 322 317 316 320 322 321 320 319 321 323 324 324 326 330 328 329 329 328 325 325 325 327 328 330 327 321 321 321 324 328 328 326 324 323 323 323 322
311 311 310 309 308 309 308 309 310 311 313 315 317 319 320 320 316 316 313 314 316 314 316 317 319 322 324 326 326 325 326 323 326 327 327 327 327 321 317 315 316 318 318 317 314 317 320 323 325 328 331 329 328 328 327 325 325 328 329 329 330 326 322 322 324 326 328 326 324 323 323 322 321 322
310 309 308 307 306 307 307 308 309 311 312 312 315 316 315 316 316 314 314 312 316 319 317 316 321 322 323 325 325 326 327 326 325 326 326 327 323 321 321 315 314 315 316 316 316 319 320 319 321 325 328 329 328 327 328 329 328 330 329 325 324 323 322 321 323 327 328 327 325 324 323 322 321 322
311 309 307 306 305 306 306 306 308 309 309 311 311 311 311 312 313 313 312 311 313 319 320 320 321 323 323 324 324 325 326 327 321 326 327 327 322 323 324 317 313 313 314 315 317 321 321 321 322 324 327 328 329 328 329 329 329 328 323 321 320 320 319 320 323 327 327 326 325 324 323 321 321 322
310 309 307 306 306 305 305 306 307 307 307 308 308 308 308 309 310 311 310 310 311 316 322 321 320 321 321 321 323 323 324 324 325 324 327 327 327 326 325 325 314 311 312 312 312 313 315 318 323 324 326 330 329 325 323 324 320 322 322 319 317 317 317 318 318 322 326 325 324 322 321 320 320 320
310 308 306 305 305 305 305 306 306 306 306 306 306 306 307 307 308 311 310 311 311 312 317 316 317 315 317 316 321 319 319 321 324 325 325 325 326 327 327 326 325 313 312 311 311 311 312 313 316 318 317 319 319 318 316 318 316 320 319 313 314 317 319 319 317 318 323 324 322 320 319 318 318 319
309 307 306 304 305 305 304 305 305 306 306 306 306 306 306 307 308 310 313 310 308 309 310 313 310 310 312 313 315 317 316 318 321 323 323 324 325 327 327 326 325 315 310 310 310 310 311 312 312 314 314 315 315 315 314 315 314 314 315 311 312 315 316 315 314 316 323 324 321 319 318 316 318 320
308 307 306 305 305 304 303 303 304 305 306 306 306 305 306 306 307 309 310 309 307 307 305 307 307 309 309 311 313 314 313 314 315 319 322 324 324 326 328 327 325 319 310 309 310 310 311 311 311 312 312 313 313 313 313 313 312 311 312 310 311 311 311 311 310 311 318 321 322 320 318 317 319 321
308 307 306 306 304 303 302 303 303 304 304 305 305 305 305 306 307 307 307 307 307 305 304 304 307 308 308 309 310 311 309 311 313 317 317 320 321 321 326 328 326 317 311 310 310 310 310 310 310 310 311 312 312 311 311 310 310 311 311 310 310 310 310 310 309 310 312 313 315 320 320 316 320 323
309 307 306 306 305 304 302 302 303 303 303 304 304 305 305 305 305 305 305 306 305 304 304 303 303 305 306 306 308 309 310 309 310 313 314 318 313 310 311 319 324 321 315 313 313 310 310 310 311 310 310 311 311 311 310 310 310 310 310 309 309 309 308 308 308 308 309 310 311 313 314 314 318 322
309 308 307 305 305 304 303 302 302 302 303 304 303 305 305 305 305 304 304 304 304 303 302 302 303 303 306 306 305 308 310 311 312 310 310 312 310 308 306 307 312 316 315 312 310 311 312 313 313 310 310 310 311 310 310 309 310 310 309 308 308 307 307 307 307 308 308 308 308 309 309 312 318 322
309 308 307 307 306 304 303 303 302 302 302 302 302 303 303 303 304 303 303 303 303 302 302 301 300 302 303 304 306 308 309 307 308 309 311 306 305 305 305 304 304 307 306 304 305 304 308 311 311 310 309 310 310 309 309 310 311 311 309 308 307 307 306 306 307 307 307 307 308 307 306 307 310 318
310 308 307 306 307 307 307 304 303 302 303 302 301 301 302 302 302 302 303 302 302 302 301 300 301 301 301 302 303 304 305 304 303 306 311 309 308 305 303 303 304 305 304 303 302 302 303 313 314 314 314 313 311 311 311 312 311 311 308 307 306 306 306 306 306 307 307 307 307 306 306 306 307 310
307 308 306 308 308 307 306 304 300 299 299 302 302 300 301 301 300 301 302 301 301 301 299 299 299 298 299 300 302 303 305 306 305 304 304 303 304 306 303 302 302 303 303 300 299 299 302 303 302 302 303 305 308 313 312 314 313 310 307 306 305 305 305 305 306 306 306 306 306 305 305 306 306 305
301 302 303 303 305 305 305 301 299 298 298 297 298 298 299 301 301 300 300 301 301 300 299 299 298 298 298 300 302 304 304 304 302 301 301 301 301 299 298 297 300 303 302 300 297 297 300 301 299 300 300 302 304 306 313 309 309 307 305 305 305 305 305 305 305 305 305 305 305 305 305 304 303 302
298 298 299 299 301 302 304 302 299 300 300 298 297 297 297 296 295 296 300 301 300 300 299 298 297 297 298 299 301 303 303 302 302 301 299 299 298 297 296 296 295 300 303 298 296 295 299 300 298 297 299 300 302 302 304 302 301 301 302 302 302 302 303 304 305 305 304 303 303 302 302 301 300 299
295 296 297 297 298 299 305 304 299 299 300 301 301 300 300 300 299 294 294 296 301 301 299 298 297 297 298 298 300 303 304 304 300 300 298 298 297 297 296 296 296 298 302 298 295 293 296 298 296 295 297 299 300 301 301 301 300 300 300 299 299 300 300 301 303 303 302 300 299 298 298 297 297 297
294 294 295 295 296 297 299 298 299 302 301 300 301 300 299 298 300 299 297 297 297 299 300 298 296 298 299 298 299 301 304 302 300 299 298 298 297 297 296 298 298 299 301 298 295 293 294 297 295 294 296 298 299 299 299 299 300 299 299 299 298 298 298 298 298 298 297 297 297 297 296 296 296 295
294 293 295 295 295 296 297 298 297 303 301 299 299 296 297 297 297 297 298 299 299 299 300 299 298 297 298 298 298 299 301 304 303 303 301 300 299 299 299 299 299 298 300 299 296 291 294 296 294 294 296 297 297 298 299 299 299 299 299 299 299 298 298 298 297 297 297 297 297 296 296 295 295 295
294 294 293 293 294 295 296 296 294 298 301 299 298 298 296 297 296 297 299 295 296 298 298 298 298 297 297 296 296 297 298 301 303 303 303 302 301 299 297 295 297 296 299 300 296 293 293 296 294 294 296 297 296 297 297 298 299 298 298 298 298 298 298 298 297 297 296 296 296 295 295 294 294 294
295 296 295 292 293 293 293 293 292 294 299 298 297 297 297 297 297 300 303 299 296 295 295 294 294 294 295 295 295 295 295 297 301 301 300 298 298 297 295 296 296 296 298 299 299 295 293 295 294 293 294 295 294 295 296 297 297 298 298 297 297 297 297 297 296 296 296 296 296 295 295 295 295 295
293 297 301 299 293 293 293 292 292 294 298 296 295 295 295 296 296 297 299 301 300 297 296 296 295 295 295 295 296 296 296 296 299 301 298 299 298 296 296 295 296 297 298 298 300 295 293 295 295 293 294 294 294 295 295 296 297 297 297 297 297 297 297 297 297 296 296 296 296 295 295 295 295 295
293 293 297 298 295 295 293 292 292 293 296 294 293 293 294 294 294 293 296 297 297 297 297 297 298 296 297 299 298 298 297 297 299 298 298 299 298 296 296 297 297 295 296 298 300 294 293 293 293 293 292 290 293 295 295 295 295 296 296 296 296 296 296 295 295 296 295 295 295 295 295 294 295 295
292 292 293 295 291 291 291 291 291 292 293 294 292 293 293 293 294 294 297 298 296 296 296 295 296 296 296 296 297 297 298 299 299 297 297 298 299 298 296 295 295 293 293 297 299 294 294 294 292 294 293 290 287 292 294 294 295 295 295 295 294 295 295 295 294 295 295 295 295 295 295 295 294 294
291 292 292 292 292 291 291 291 292 292 292 294 294 292 292 291 294 295 295 297 298 295 295 295 295 295 295 295 295 296 297 298 298 297 296 297 297 297 297 295 294 293 294 296 296 296 293 294 293 293 292 292 291 291 292 293 294 294 295 294 293 294 294 294 294 294 294 294 294 294 294 294 294 294
291 290 290 291 292 291 291 291 291 292 292 292 295 292 291 292 293 297 295 294 294 295 294 294 294 294 294 293 294 295 296 296 297 297 296 296 296 296 296 295 293 292 292 296 295 296 294 292 293 292 292 291 290 291 290 290 292 293 294 294 293 293 293 293 292 292 292 293 293 293 293 294 294 294
288 289 289 292 294 291 291 291 291 292 292 293 292 291 292 292 292 294 293 293 293 292 293 293 292 292 292 292 293 293 294 295 296 296 296 296 296 296 296 296 295 294 294 295 298 297 295 293 294 293 291 292 290 290 290 289 289 293 292 292 292 293 293 292 291 291 292 292 292 293 292 292 292 292
289 291 290 291 291 291 291 291 291 291 291 291 291 291 292 292 293 294 293 292 292 291 291 292 292 291 291 292 292 293 294 295 296 296 296 295 295 295 295 295 295 295 295 295 295 296 295 294 293 294 293 291 290 288 287 290 291 291 290 292 292 292 292 292 291 291 291 291 290 291 290 290 291 291
290 291 291 291 291 291 291 291 292 292 292 291 291 291 292 296 292 292 292 292 292 291 290 290 292 292 292 292 291 293 295 296 296 296 296 296 296 295 295 294 295 295 296 296 295 295 295 294 293 294 293 293 291 291 290 288 290 290 291 290 289 290 290 290 290 289 289 289 289 289 288 288 288 290
291 291 291 291 291 292 292 292 291 291 291 291 291 292 293 291 291 290 291 291 291 290 290 290 291 289 290 291 292 291 292 294 293 293 293 293 294 294 293 293 293 294 295 295 295 294 294 294 293 293 292 292 293 291 291 290 289 290 290 289 289 289 289 289 288 289 289 288 288 288 288 288 288 288
293 292 292 291 290 290 290 290 291 291 291 291 291 290 290 290 290 290 289 289 290 290 290 290 289 289 290 291 292 292 292 292 292 292 292 292 292 293 292 292 291 292 294 295 295 294 294 293 294 294 292 291 292 291 292 292 290 289 289 288 286 285 286 287 288 287 287 288 288 288 288 288 288 289
292 291 291 291 290 290 290 290 289 289 289 288 288 289 288 289 289 291 294 292 289 288 288 289 290 289 291 291 290 291 291 291 291 292 292 291 291 290 291 290 289 291 292 293 293 294 293 293 293 292 292 291 290 291 292 292 290 289 288 287 287 286 287 286 286 286 286 287 287 286 285 286 286 287
291 289 289 288 288 287 286 286 287 287 287 286 288 288 288 288 288 288 288 287 286 286 289 288 288 289 288 289 289 289 290 290 290 291 291 291 291 291 291 290 289 289 289 289 290 291 291 292 293 292 292 291 291 291 291 289 289 287 287 286 286 285 284 285 285 286 286 286 285 285 285 286 286 287
287 286 284 284 284 285 285 285 285 285 285 285 285 286 287 287 287 286 286 286 285 286 286 286 287 287 287 288 288 289 288 290 290 289 290 290 290 290 289 288 288 288 288 288 288 289 290 291 291 292 291 291 291 290 290 290 288 287 286 285 285 285 285 285 285 285 285 284 284 283 284 285 285 285
285 285 285 283 284 283 285 283 283 283 283 282 284 284 284 284 285 285 285 286 284 285 284 284 284 283 286 285 286 287 287 288 289 289 288 289 289 289 289 288 288 287 288 288 289 288 289 288 289 289 289 289 290 291 294 289 288 287 287 285 285 285 286 286 286 286 286 285 284 282 283 283 284 285
283 283 285 284 283 284 285 282 283 283 283 282 282 283 284 284 283 285 284 284 284 284 285 284 283 283 283 283 283 283 283 285 285 287 287 286 287 286 287 288 286 287 286 287 288 287 287 286 286 287 285 283 284 285 286 294 292 288 287 285 286 285 285 285 285 286 285 284 284 282 280 283 283 285
283 284 286 286 285 285 284 283 284 283 284 284 283 282 282 283 283 283 283 284 284 283 284 284 282 282 283 283 283 283 283 284 283 284 285 286 285 287 286 284 285 286 286 287 287 287 286 286 286 286 284 283 280 281 283 286 291 293 289 286 284 285 284 284 286 287 285 284 284 284 281 279 282 283
285 285 286 285 286 285 284 283 283 283 283 283 283 283 283 283 282 282 282 284 283 283 283 284 282 282 282 282 284 284 282 282 283 284 283 284 286 285 285 286 285 285 286 287 287 287 286 287 286 285 285 283 281 279 281 283 286 289 292 289 287 284 283 285 283 282 284 284 284 283 282 282 283 282
286 286 285 285 284 285 284 284 283 284 283 282 283 283 283 283 283 282 283 281 281 282 283 283 282 282 283 283 281 282 282 283 282 280 282 282 284 284 284 285 285 285 286 286 288 287 286 285 286 286 286 285 284 284 283 284 283 284 287 293 289 284 283 285 285 283 283 283 285 283 283 285 286 288
285 286 285 285 284 284 284 284 283 283 283 283 283 282 283 282 282 281 282 281 279 279 280 280 281 283 282 281 281 282 282 282 281 280 280 281 281 283 284 283 285 285 284 285 286 286 285 286 286 287 287 287 286 285 285 280 279 280 281 287 292 290 288 285 285 284 282 283 284 285 282 281 284 281
285 286 285 286 286 286 284 284 284 283 284 283 282 284 281 282 283 281 281 280 280 280 279 278 278 278 279 280 281 283 281 280 280 281 281 281 281 281 281 283 281 282 284 284 284 285 287 289 289 286 285 282 283 287 286 285 285 284 283 283 289 291 291 291 289 286 285 283 286 285 284 283 280 279
286 284 284 285 287 287 285 285 283 282 282 282 282 281 282 282 282 285 281 282 281 279 278 278 277 279 278 277 278 280 281 279 279 280 280 281 280 279 281 279 280 278 280 281 281 284 284 284 284 288 287 285 286 286 283 284 282 282 281 279 280 285 289 291 291 291 289 286 284 280 279 280 280 280
284 285 283 282 283 284 283 283 282 282 282 282 282 281 281 280 280 280 279 279 279 279 279 280 279 278 278 278 278 277 277 278 277 278 278 279 280 280 280 279 279 279 281 281 280 280 281 283 285 285 285 285 285 285 285 285 282 280 282 281 283 281 281 287 290 290 290 291 291 291 289 286 283 280
283 285 283 282 284 282 281 282 281 280 282 282 280 280 279 280 280 279 278 278 278 280 278 278 278 278 279 280 279 278 276 277 277 277 278 279 278 278 278 279 278 277 278 277 278 279 278 278 280 284 284 284 281 282 283 279 280 281 283 282 279 278 283 281 280 284 285 286 289 291 292 291 290 289
283 284 283 282 282 281 281 280 281 280 280 279 279 279 278 278 279 278 277 276 277 277 278 278 280 280 279 278 279 282 281 285 281 279 278 278 277 279 279 278 279 278 278 277 277 279 278 277 277 277 281 281 280 284 284 283 284 282 280 278 283 283 281 280 281 281 281 282 286 288 289 290 290 290
Wind_Speed
7 7 8 7 6 7 7 6 6 6 6 6 6 6 8 8 8 6 4 5 5 2 2 3 4 4 6 6 3 4 5 7 7 6 7 8 8 11 16 19 20 20 19 22 21 22 20 19 18 18 21 20 20 21 20 21 20 19 21 20 20 15 13 15 16 19 21 22 20 19 18 17 16 16
5 6 7 6 6 6 6 6 5 5 5 6 6 6 6 7 7 6 6 6 2 3 2 2 4 6 8 7 6 4 5 7 8 6 7 8 8 13 14 16 17 19 20 20 22 21 21 21 21 21 23 20 21 22 20 21 20 21 22 21 21 17 17 15 18 19 20 20 21 20 18 15 15 17
5 6 7 7 6 6 6 6 5 5 6 6 6 6 6 6 7 8 6 5 1 3 7 3 4 6 8 8 7 5 5 5 6 6 7 8 11 14 12 15 18 20 21 23 20 19 20 21 21 21 23 21 21 22 21 23 24 23 22 20 18 18 18 15 18 20 21 19 21 19 17 14 15 17
5 6 7 7 6 6 6 6 6 6 6 6 6 6 6 6 6 7 6 5 7 6 6 5 6 8 9 9 7 5 5 5 6 6 7 9 11 9 8 13 18 21 23 22 20 23 20 23 23 22 22 22 23 23 22 23 22 22 21 19 18 19 19 19 20 21 21 19 20 19 16 15 15 16
6 6 7 7 7 6 6 6 7 7 7 7 6 6 5 5 6 6 7 6 8 6 3 5 7 8 9 8 7 9 8 6 4 4 6 7 7 8 8 9 14 19 21 20 21 21 22 20 20 21 22 23 23 21 22 22 21 21 21 19 19 21 19 20 20 20 20 19 19 18 16 16 16 17
5 6 6 6 6 6 6 7 8 8 7 7 6 6 4 4 5 5 4 6 6 8 6 7 7 8 10 8 8 10 11 10 8 7 6 5 8 9 8 9 9 17 19 20 20 20 21 21 23 21 21 22 22 21 21 21 21 21 19 18 20 21 20 20 21 21 21 21 20 19 17 17 17 17
4 5 4 5 5 6 8 8 7 7 7 7 6 6 5 5 6 6 6 7 6 8 7 6 8 8 9 7 9 10 9 9 9 8 7 7 7 7 9 9 8 13 18 20 19 21 23 22 19 18 19 20 21 22 22 22 23 23 22 20 20 22 20 20 21 21 21 21 20 20 19 18 18 17
4 4 5 5 5 6 7 8 8 7 7 7 6 7 6 6 7 6 7 7 6 5 7 7 8 8 9 8 9 8 9 8 8 6 7 7 8 8 8 9 9 10 17 19 20 21 22 22 21 20 18 18 19 21 21 20 18 18 20 20 21 21 21 20 21 22 21 21 21 22 21 20 20 19
4 4 5 5 4 5 6 7 8 8 9 7 8 8 7 7 7 7 7 7 7 6 8 8 7 7 6 6 7 7 9 10 8 7 7 8 10 11 8 8 8 11 16 19 21 21 22 22 21 19 17 19 19 19 19 18 18 23 22 21 20 20 21 22 21 21 21 21 21 22 21 20 20 22
3 3 4 4 5 5 6 6 6 7 8 7 8 9 8 7 6 7 7 6 7 7 6 7 8 8 8 9 8 8 9 10 9 9 9 5 10 10 12 9 5 1 3 7 10 15 17 21 20 17 17 19 21 19 20 19 19 18 18 20 21 20 20 21 20 18 19 19 20 20 20 19 20 22
3 3 3 4 5 6 5 5 6 5 6 6 6 6 6 6 6 6 6 6 7 6 6 5 5 6 7 7 9 10 8 7 5 8 9 7 7 9 11 10 11 9 7 7 7 7 7 14 16 18 18 18 17 18 18 19 20 20 21 21 21 20 20 20 20 20 19 19 19 20 20 19 20 20
3 2 2 2 2 3 4 5 6 6 5 5 6 6 5 5 6 7 6 7 6 6 6 6 7 8 8 8 8 7 8 10 8 9 5 7 8 9 8 11 10 10 9 8 9 12 11 3 9 11 11 13 14 15 16 18 18 20 19 19 21 21 21 21 19 19 19 20 21 21 20 19 18 18
3 2 1 0 0 1 2 4 5 7 6 6 7 7 5 6 6 6 7 6 6 6 6 7 6 7 8 9 11 13 12 12 10 9 7 4 5 4 8 10 11 10 8 7 11 10 10 4 4 2 3 1 5 11 14 14 20 19 20 21 22 25 24 22 20 21 20 18 19 19 19 17 16 16
4 4 4 3 6 4 2 2 4 5 7 7 6 6 7 7 6 6 7 8 7 7 8 9 9 9 9 9 9 10 10 8 8 10 9 8 7 5 5 7 10 10 8 9 12 11 11 8 7 9 8 6 6 2 3 4 8 14 18 18 19 19 20 22 24 23 21 21 20 19 18 16 15 14
3 3 3 3 4 4 4 2 4 5 3 5 7 8 9 9 8 6 7 7 8 7 7 7 7 8 7 9 10 9 9 8 9 8 7 7 7 9 9 7 5 11 10 6 11 12 10 9 9 9 8 8 6 6 1 5 1 4 11 16 19 24 27 26 26 24 24 21 21 20 18 16 15 14
3 3 3 3 3 3 3 1 1 3 4 4 5 5 6 8 11 10 8 6 7 8 7 8 9 7 7 8 8 8 9 9 8 9 8 8 9 9 9 8 7 7 8 7 12 11 11 8 10 13 10 10 8 9 6 8 10 11 10 6 5 6 3 19 26 25 24 22 19 20 18 17 16 16
4 4 4 4 5 4 7 3 2 0 1 3 4 7 8 9 10 11 13 11 7 5 7 8 10 9 8 7 7 9 9 6 8 8 9 8 8 8 9 8 7 8 8 5 12 13 11 9 11 13 12 12 11 11 10 12 15 18 18 17 15 14 19 14 11 23 24 22 22 22 22 22 20 19
4 4 5 5 6 5 5 5 4 2 2 1 2 4 4 5 7 10 12 12 12 9 7 8 10 9 8 8 8 9 7 8 8 7 8 7 8 10 10 7 8 9 8 5 5 13 10 8 12 14 12 11 12 12 16 15 16 19 22 24 26 27 25 25 16 22 26 28 27 26 26 24 21 20
4 4 4 3 4 5 5 5 6 3 4 4 3 3 3 4 4 4 6 7 7 7 7 7 7 8 8 8 8 8 7 7 6 5 5 4 4 3 4 10 9 12 12 9 5 10 8 7 16 13 11 11 14 12 18 20 19 19 22 27 33 32 30 27 24 24 26 27 27 27 25 24 23 22
4 4 4 4 5 5 5 8 8 7 5 6 4 4 4 4 4 3 1 2 6 7 7 7 7 6 8 11 12 12 10 7 5 5 4 6 5 6 11 11 8 10 9 11 10 11 11 8 15 11 10 11 15 13 13 21 23 23 23 23 24 28 31 30 28 25 26 26 26 26 24 21 20 20
4 4 4 4 5 6 7 8 10 9 9 5 5 5 5 5 5 7 5 6 9 10 10 12 13 13 15 17 19 19 19 14 8 3 9 9 5 7 11 8 9 9 7 8 9 9 12 8 11 12 11 13 13 12 12 13 21 23 25 25 26 25 27 29 28 27 26 25 25 26 24 22 22 22
4 6 13 9 5 6 5 10 12 10 8 6 5 5 6 6 6 6 5 5 7 9 9 13 14 15 16 15 16 18 18 18 13 9 9 6 4 9 8 9 8 6 9 10 9 9 7 4 6 11 7 14 11 11 11 11 12 18 22 26 25 25 27 28 29 28 27 25 24 23 22 19 17 14
6 6 8 12 10 8 10 14 13 12 8 6 4 4 5 6 5 4 5 6 7 8 9 11 10 12 13 12 11 12 17 19 16 11 9 7 6 7 6 4 3 8 8 8 11 6 5 5 7 2 7 11 7 8 7 9 9 11 11 14 18 25 26 27 26 24 23 21 20 19 19 19 17 11
6 6 7 9 12 13 13 14 13 12 10 5 4 4 5 5 5 4 6 6 6 7 8 7 8 9 9 10 10 10 11 12 12 11 10 9 7 7 8 9 7 5 4 6 8 4 4 4 7 8 5 8 5 5 8 10 10 10 10 11 12 16 20 17 16 18 17 17 19 20 19 18 14 9
6 7 6 5 9 12 13 13 13 13 12 10 6 6 5 1 1 5 6 7 8 7 7 7 7 8 8 9 9 9 10 10 9 10 10 10 9 8 7 7 7 7 6 7 8 1 4 4 9 8 9 9 5 7 7 9 9 9 9 9 10 10 11 11 9 11 15 17 15 15 15 17 17 12
5 5 4 4 7 13 14 14 13 13 13 12 8 6 9 11 12 6 4 5 6 6 7 7 8 8 8 9 9 9 9 9 9 9 9 9 9 9 7 7 6 6 6 8 10 5 7 7 5 8 7 10 9 9 8 9 8 8 9 9 8 8 8 9 9 8 8 7 7 9 11 13 13 17
3 3 4 4 10 13 14 14 14 14 14 11 8 13 14 12 12 9 6 6 6 6 6 7 7 7 7 8 8 8 8 8 8 9 9 9 9 9 9 9 8 7 5 7 8 6 7 6 5 6 9 9 11 8 8 6 6 6 9 8 8 7 7 7 8 8 7 8 9 17 15 16 16 15
3 6 5 5 11 13 13 14 14 14 12 10 14 14 14 13 11 7 7 6 6 5 6 7 7 7 6 6 7 6 5 6 7 7 8 9 9 9 9 10 10 9 9 8 8 7 9 10 8 7 8 8 10 10 10 7 7 6 9 8 7 7 7 7 8 8 7 7 7 7 8 7 8 10
4 6 8 11 12 12 12 12 12 12 13 15 15 14 14 12 7 7 6 6 7 7 5 6 5 5 5 5 4 5 5 5 6 7 7 7 8 8 9 10 10 10 8 8 9 9 8 9 9 8 9 7 10 8 8 7 6 6 5 6 7 6 6 6 6 7 6 6 6 6 6 6 6 5
8 10 11 11 12 11 9 9 7 7 8 13 14 14 12 7 7 6 6 6 7 6 6 5 4 4 4 4 4 4 4 7 7 5 6 7 8 6 6 11 11 10 10 9 9 9 9 8 8 9 10 8 8 9 7 8 9 7 7 7 8 6 6 6 6 6 7 7 6 6 5 5 5 6
7 8 8 7 7 7 10 10 9 9 9 10 9 8 7 6 6 6 6 6 6 6 6 5 4 3 4 3 5 7 7 7 6 5 5 7 6 6 6 11 10 10 9 9 9 8 7 7 7 7 10 8 8 8 7 7 9 7 5 4 4 6 2 5 6 6 6 6 6 6 6 6 6 4
4 5 6 8 6 7 7 7 7 7 7 7 6 7 6 6 5 4 5 7 6 4 5 5 5 4 5 6 6 6 6 7 6 6 6 6 7 6 5 10 9 8 8 8 8 8 8 7 7 8 8 6 9 7 7 7 7 6 6 5 6 6 5 6 6 5 4 5 6 5 4 5 5 3
5 6 7 6 6 6 6 6 7 7 7 7 6 7 6 6 6 7 8 7 5 5 7 7 6 4 5 5 5 6 7 7 7 6 7 6 7 6 8 9 7 7 8 7 7 7 7 7 8 9 8 7 7 6 6 8 6 5 6 5 5 5 4 4 5 5 3 5 5 4 4 2 1 1
7 6 5 4 4 5 7 7 6 6 6 7 7 6 6 6 6 6 6 6 4 5 6 5 6 6 5 5 5 5 6 6 6 6 6 5 5 7 8 8 7 6 6 6 6 6 6 6 6 7 7 7 6 6 5 7 6 5 5 5 5 4 2 3 3 3 3 3 4 4 2 0 1 1
5 5 6 4 5 4 5 5 4 4 5 4 5 5 4 6 6 5 6 4 3 6 6 6 4 4 6 4 3 5 4 5 6 6 6 6 6 6 6 7 6 5 6 6 6 3 4 5 6 7 7 6 7 6 6 3 7 4 4 3 2 4 2 1 3 2 1 2 3 3 0 1 3 3
5 5 6 5 4 5 6 3 3 4 4 3 3 3 5 5 5 5 4 2 4 5 6 6 5 5 5 5 4 3 4 5 4 5 6 6 6 6 6 5 5 4 4 4 4 3 3 4 4 6 7 5 4 4 1 4 3 5 6 2 0 2 1 2 2 2 1 2 2 4 2 2 3 3
4 4 6 6 4 6 5 3 4 3 3 4 4 4 3 4 3 3 3 1 5 5 5 6 5 3 3 4 5 4 4 5 5 3 4 4 4 5 6 3 3 3 5 1 1 1 2 3 3 6 7 6 5 5 1 1 1 1 3 5 1 0 2 1 1 1 0 1 2 3 4 2 2 4
5 5 6 5 5 4 4 4 3 3 3 3 3 4 3 2 2 3 2 5 5 4 5 6 3 3 3 3 6 5 5 4 5 5 3 4 5 4 5 6 3 3 3 1 1 1 2 3 3 3 6 7 6 4 3 1 0 3 3 3 6 2 2 3 1 2 2 0 4 2 2 1 1 3
6 6 7 6 5 6 5 4 4 4 2 2 3 4 4 4 4 5 6 5 3 3 4 4 4 3 4 4 4 5 5 5 6 4 5 3 4 5 3 3 3 1 2 2 1 0 1 1 3 4 5 7 6 6 5 5 4 4 1 5 4 5 3 4 4 2 2 1 1 1 0 1 1 2
3 4 6 6 5 4 4 4 3 4 3 3 3 1 3 4 3 3 4 3 3 3 3 2 1 3 3 3 4 4 5 5 4 4 4 5 2 4 6 4 5 4 3 3 3 3 3 4 5 7 7 4 1 2 6 4 1 1 1 3 9 8 6 6 5 4 2 4 1 1 1 2 0 3
4 5 4 5 6 5 6 5 4 4 3 2 1 2 2 3 4 3 2 2 3 4 3 2 3 3 2 1 2 5 5 3 3 3 3 4 5 5 5 5 4 3 6 5 5 4 7 8 7 5 4 2 2 5 4 2 1 2 3 6 5 9 7 8 7 6 5 3 5 3 4 2 2 0
6 5 4 5 6 5 5 6 3 3 3 2 2 3 3 3 4 3 3 3 4 3 3 3 2 2 2 1 1 3 5 3 3 3 3 4 4 3 4 4 7 4 5 6 5 6 4 2 2 6 4 5 6 6 5 6 5 4 4 4 5 6 6 9 10 7 5 7 5 3 2 1 1 1
5 5 5 3 4 4 4 4 4 4 4 4 3 3 4 3 2 2 4 3 2 3 3 2 1 3 2 1 1 1 4 2 3 3 1 1 3 4 2 1 1 1 1 2 3 2 3 1 3 6 6 5 4 6 7 7 6 4 4 3 5 3 4 4 4 8 8 10 10 9 8 7 6 3
5 5 4 5 5 5 4 5 5 4 5 5 4 3 4 4 2 1 2 3 3 2 2 2 1 1 1 1 1 2 3 2 2 3 3 2 1 1 2 1 1 1 1 1 1 2 2 1 1 5 7 7 4 5 7 4 6 7 7 3 3 2 6 4 3 4 4 6 12 14 12 12 11 12
5 5 6 4 4 4 4 3 3 3 3 4 4 4 3 2 3 2 1 1 2 2 1 1 0 0 0 0 2 2 0 0 1 1 3 3 2 1 1 2 2 2 3 1 1 2 3 2 1 1 1 4 4 7 6 6 6 5 4 4 6 6 5 2 4 7 7 8 9 13 13 13 13 12
Wind_Direction
35 30 21 18 3 2 352 349 344 336 337 332 328 330 327 328 307 308 303 312 321 296 301 323 296 343 331 307 278 247 235 243 233 222 219 226 232 221 217 219 223 222 211 211 207 205 204 208 208 195 191 192 190 191 191 183 182 185 189 192 198 189 180 183 193 184 174 175 168 168 170 171 170 163
34 30 26 15 12 354 353 346 331 330 330 332 330 331 337 334 329 320 311 312 282 289 301 263 297 320 313 307 291 265 254 240 232 234 228 230 234 232 218 218 221 219 215 214 211 206 203 208 205 199 194 192 190 192 191 185 182 187 191 192 195 180 178 186 187 178 174 172 167 170 174 172 165 160
33 29 26 15 10 353 348 336 333 336 344 339 342 350 341 338 342 334 320 312 267 10 316 294 292 304 309 304 297 286 270 259 225 240 246 239 239 238 229 213 210 220 219 219 210 204 204 208 204 197 197 191 191 191 193 190 188 191 190 190 187 175 180 187 181 178 175 171 169 169 171 166 162 161
35 33 31 18 3 352 343 343 346 352 352 355 0 355 346 342 343 339 328 306 304 321 291 306 321 329 323 314 304 299 284 269 227 234 239 243 246 241 242 222 212 214 222 222 209 208 201 205 201 196 198 191 192 193 194 192 190 190 189 185 175 175 182 184 184 179 177 170 169 170 169 165 165 163
42 38 37 19 4 353 359 354 358 1 4 7 4 2 352 344 337 336 326 312 306 303 300 356 341 334 341 331 337 331 322 308 288 244 240 244 241 240 235 233 216 214 218 218 212 207 203 204 203 204 196 192 193 192 193 193 189 190 189 181 173 177 181 179 180 180 176 170 170 168 167 164 167 167
42 42 36 17 6 2 6 6 12 13 18 11 8 3 337 317 315 322 313 313 312 324 342 353 342 340 347 329 349 348 337 328 316 305 287 252 242 242 236 230 229 212 216 217 216 210 205 198 200 202 201 191 191 189 192 192 188 188 187 181 178 180 179 180 179 179 178 171 169 166 165 162 164 169
44 45 35 13 2 3 15 16 16 19 20 9 5 345 325 327 334 333 349 350 341 344 333 351 343 347 335 332 333 335 332 319 317 306 296 287 275 251 234 229 229 212 210 213 211 202 208 208 203 202 198 194 190 191 192 190 190 183 184 182 179 181 182 180 179 177 173 170 168 167 167 164 163 170
44 40 35 17 8 2 20 20 18 18 19 17 0 350 338 349 349 354 1 13 356 343 341 344 344 337 332 330 325 328 322 323 319 302 300 295 289 280 250 232 226 211 207 209 207 206 205 201 192 193 198 199 196 191 190 197 183 184 187 179 178 181 184 182 181 176 168 166 171 170 170 169 166 171
52 42 40 18 9 7 21 23 24 15 25 22 23 14 0 3 358 8 6 7 9 2 1 337 336 329 328 317 317 335 338 332 325 323 330 326 343 332 299 244 228 220 198 202 204 204 204 198 188 192 194 195 198 199 184 188 186 189 183 180 179 182 186 182 177 176 170 166 169 173 172 169 169 171
61 49 35 22 17 19 26 18 16 20 25 25 27 24 15 6 6 11 8 9 9 9 358 351 334 344 347 340 338 340 337 330 330 336 336 0 18 1 4 358 329 19 150 200 208 209 203 199 186 194 199 196 198 197 192 186 187 189 187 180 181 181 182 179 176 172 165 165 166 171 168 169 173 174
77 59 46 36 27 29 23 20 11 10 23 26 26 16 9 355 5 8 2 355 2 3 350 342 345 334 342 345 334 336 335 324 314 336 333 5 9 20 15 5 8 15 40 14 360 339 239 204 193 193 197 199 199 190 192 186 193 191 189 185 184 178 178 174 170 172 169 164 165 166 165 170 172 173
92 75 48 36 27 37 27 27 14 8 13 12 29 8 359 357 2 10 0 358 355 356 355 349 338 350 342 345 348 330 348 359 7 3 341 17 12 18 27 26 13 13 27 36 33 25 8 321 210 192 200 202 198 192 190 189 192 195 193 192 185 174 175 173 168 164 165 164 163 163 164 167 170 170
99 85 57 45 1 63 61 28 28 21 20 26 30 10 2 10 14 12 13 5 360 360 355 352 343 340 349 356 347 359 7 13 354 333 351 41 33 14 38 30 28 17 15 30 38 25 354 33 80 132 108 3 230 205 196 195 199 198 197 196 188 178 172 165 163 164 163 159 156 156 157 159 160 164
32 21 4 357 25 13 358 325 335 359 19 33 43 19 17 14 16 22 20 18 8 4 8 8 354 353 358 347 350 358 9 1 358 8 11 19 352 353 39 60 36 13 17 39 46 25 14 23 45 36 40 4 18 32 189 228 207 204 199 194 185 178 169 167 167 162 158 157 156 151 147 147 149 145
15 360 346 340 355 2 356 345 330 314 323 350 29 33 26 22 26 20 25 28 18 12 11 3 3 2 347 345 347 1 4 12 11 11 10 15 21 30 28 21 346 18 6 28 49 33 13 20 40 31 29 7 8 360 74 118 123 227 211 201 196 188 175 171 164 159 156 153 149 145 140 130 121 124
17 3 357 356 352 340 348 338 315 318 293 303 323 6 16 30 30 36 38 24 23 16 14 14 13 359 350 334 351 354 11 11 16 16 20 25 37 42 41 31 30 342 352 31 59 42 19 19 41 40 21 17 14 8 38 104 98 96 91 73 75 22 277 177 161 156 144 137 133 122 111 107 105 103
15 9 12 15 9 347 0 17 359 319 318 307 4 26 14 23 29 33 37 33 35 24 29 25 22 9 345 357 355 352 9 5 32 24 34 29 39 47 50 34 27 356 343 16 61 49 19 19 39 43 20 21 18 15 31 76 93 93 90 83 72 84 72 8 156 133 123 114 105 100 103 101 95 90
24 15 20 20 16 358 7 358 349 28 75 50 27 25 26 28 19 25 37 34 31 31 39 34 32 8 5 14 357 351 353 25 32 33 43 32 45 50 52 41 39 19 355 15 81 58 24 15 53 43 26 26 31 33 36 59 86 97 96 94 90 81 75 76 65 90 98 100 98 96 91 88 90 91
38 18 16 23 16 7 8 4 330 45 61 61 44 25 13 20 24 23 29 33 32 31 32 38 37 26 20 18 14 7 5 21 27 30 44 34 30 57 79 58 42 41 20 4 51 63 25 358 59 40 32 33 43 32 37 50 66 78 93 101 105 98 93 89 85 83 86 91 95 95 96 95 93 90
29 29 21 26 26 21 22 351 13 47 71 68 64 45 17 5 3 19 72 46 49 46 39 38 37 31 33 41 38 31 25 6 6 20 43 37 16 54 57 52 30 45 20 21 55 82 53 18 71 49 35 43 50 34 40 42 55 68 72 80 87 98 103 101 93 87 86 84 84 85 85 87 90 92
23 28 28 30 28 31 24 1 33 36 71 62 61 59 46 32 27 17 19 37 45 49 44 41 40 34 33 37 37 34 30 25 359 17 49 25 357 53 66 50 47 39 18 21 17 73 70 34 66 72 44 51 49 40 39 38 46 61 70 72 75 81 87 90 90 87 83 82 83 86 87 86 84 84
28 32 39 38 39 43 28 37 43 38 56 52 38 57 59 47 39 22 11 20 20 27 39 38 36 34 32 31 36 35 34 30 27 38 43 355 18 63 60 68 58 49 37 20 351 67 64 41 29 74 68 60 39 42 41 43 42 52 65 69 73 75 79 84 85 85 86 86 86 85 87 88 85 78
35 25 31 37 40 47 43 45 46 47 61 64 45 52 68 62 51 24 36 31 24 22 27 26 25 29 27 28 31 31 34 36 34 33 31 8 34 53 36 32 45 62 26 3 347 60 21 41 15 45 77 70 45 32 43 47 50 48 47 59 61 64 67 68 73 80 84 90 94 95 89 79 75 73
29 29 28 26 29 44 48 50 48 47 54 72 55 61 72 76 60 40 51 34 36 29 33 28 29 32 27 30 30 30 35 36 35 32 30 24 29 53 53 52 53 65 7 333 343 56 50 36 60 29 28 108 75 23 34 43 42 41 46 54 58 58 66 68 74 75 82 83 82 84 88 95 100 95
45 32 25 25 27 50 52 55 53 52 48 53 58 47 54 42 72 61 61 45 40 39 29 29 28 31 32 34 34 34 36 36 32 37 36 36 33 36 46 52 51 55 28 342 352 68 76 54 83 69 65 70 92 82 46 56 40 40 42 52 60 54 62 58 63 60 65 72 81 97 111 121 121 120
37 25 31 28 37 56 56 54 54 55 58 54 61 66 78 73 70 71 67 56 46 38 34 30 33 30 34 34 35 35 38 34 34 38 41 40 42 44 44 49 53 56 16 353 18 50 92 63 50 94 88 92 78 82 84 58 47 47 53 54 59 64 72 76 74 69 69 75 75 85 88 90 105 119
28 27 48 44 57 61 58 56 52 49 49 53 49 56 58 62 70 66 57 58 53 43 34 39 40 32 32 38 33 35 36 33 36 43 45 43 46 50 52 52 54 62 41 31 35 37 75 74 12 83 99 99 101 90 75 76 67 55 62 57 60 62 69 80 82 85 87 88 93 92 84 83 85 80
66 68 62 63 62 61 58 55 54 51 49 51 46 49 53 55 57 58 56 53 61 57 40 44 43 39 28 34 35 25 21 38 40 50 51 52 49 53 55 53 52 47 47 46 45 52 73 85 73 56 80 95 96 93 94 67 77 71 76 66 65 63 67 80 87 89 87 92 92 91 97 96 93 92
92 111 89 68 62 61 57 53 52 46 39 43 46 45 48 51 50 52 59 57 60 59 55 56 47 44 36 38 32 16 25 39 41 48 51 54 56 53 60 62 55 48 46 45 48 52 63 81 85 82 77 70 91 86 86 94 92 76 72 87 71 53 60 66 85 91 91 86 85 85 96 107 92 85
100 89 76 68 60 54 51 51 47 46 35 42 44 42 44 47 47 48 64 61 65 67 64 62 57 42 39 38 21 24 34 50 37 34 47 56 50 42 48 70 54 48 46 45 51 52 62 68 77 88 84 77 81 92 89 99 84 77 73 81 101 79 45 66 72 77 85 84 81 83 72 77 94 102
69 63 65 74 75 76 64 62 57 50 35 38 35 36 34 41 41 49 63 77 80 72 77 67 55 30 16 8 26 31 40 45 30 22 49 60 43 43 44 71 67 61 49 48 47 46 52 58 59 69 89 88 77 73 81 85 94 92 64 42 44 98 91 60 64 71 77 82 81 79 75 73 72 72
76 76 62 52 39 47 44 40 39 37 41 42 39 35 32 35 32 43 76 69 63 54 77 75 63 42 35 40 35 36 41 42 32 24 47 53 52 29 47 69 62 63 61 48 47 41 49 46 58 54 65 75 91 89 83 77 82 79 75 64 72 69 77 93 84 69 71 91 81 75 68 82 97 88
56 59 53 52 47 48 58 48 43 36 40 36 34 37 29 27 35 43 44 53 34 31 66 63 69 56 55 41 31 45 49 34 30 17 51 39 62 52 60 75 72 71 75 60 53 45 48 56 58 70 71 65 65 78 95 97 60 62 93 84 81 80 69 76 94 89 73 68 70 79 77 32 35 74
80 71 75 58 76 68 72 64 55 46 46 44 36 27 26 34 42 45 51 50 36 52 68 74 74 70 68 48 36 45 52 39 37 28 47 49 49 75 72 78 70 62 72 76 66 72 68 60 66 61 63 62 60 62 70 101 105 96 92 100 96 108 104 101 104 122 108 129 128 98 86 287 288 254
81 93 85 76 70 74 78 80 73 61 56 40 50 34 30 35 39 45 53 26 41 64 65 56 63 72 81 76 62 75 61 66 53 45 38 54 46 72 81 85 77 74 85 82 77 53 66 80 81 78 58 50 58 34 29 68 115 103 88 75 96 114 122 127 128 126 98 75 97 110 51 341 303 270
84 104 106 94 93 94 84 90 91 81 77 50 53 40 45 26 20 42 40 6 61 71 69 63 53 57 74 87 73 69 80 86 70 76 63 63 74 67 60 77 91 80 76 86 96 61 61 62 64 92 90 65 65 60 25 359 18 145 130 146 14 91 78 85 91 112 94 92 108 118 139 213 254 274
113 103 106 109 116 108 116 123 105 101 103 87 58 64 70 38 352 10 349 349 70 69 82 84 68 62 64 82 87 80 74 94 97 96 105 91 90 97 96 72 83 100 99 105 69 73 61 67 56 100 102 92 98 114 148 318 1 352 138 146 176 140 124 86 87 99 286 141 160 169 176 173 236 255
136 127 111 116 119 122 124 134 118 108 99 98 91 59 49 26 359 9 358 54 49 66 69 81 85 71 62 62 84 76 76 85 96 84 99 123 125 131 141 142 148 148 143 155 117 92 57 100 115 122 116 126 129 139 157 304 48 239 218 153 161 203 115 108 120 215 270 146 176 211 111 116 244 245
144 142 140 139 147 142 143 161 142 142 160 125 95 80 52 28 23 21 37 42 32 51 64 70 66 76 83 72 75 91 75 64 64 95 113 132 152 156 168 152 145 208 135 175 224 279 89 130 171 171 153 140 157 192 178 153 206 252 235 180 160 137 184 167 193 223 219 251 252 145 216 289 100 13
150 145 152 143 156 148 145 155 145 160 158 167 140 144 94 71 54 45 46 43 59 45 54 41 31 73 68 77 101 82 67 81 104 100 102 111 122 151 163 178 173 171 172 197 205 233 198 212 195 200 199 191 193 153 150 163 202 318 306 250 184 182 184 163 190 182 241 227 165 137 242 0 240 339
129 120 160 150 150 156 156 174 172 166 167 180 144 104 114 121 88 71 78 71 78 72 57 36 26 41 33 18 43 96 94 62 74 98 113 105 110 118 146 144 156 165 175 214 219 206 218 217 215 138 100 128 137 103 78 78 136 233 235 257 257 235 224 197 187 174 206 169 161 183 205 213 214 280
134 140 160 160 151 176 159 164 186 174 182 180 161 114 104 98 118 120 81 66 74 73 65 39 28 58 38 15 49 81 98 117 83 45 49 71 58 52 108 134 136 154 149 184 209 221 241 332 138 145 134 128 132 142 184 194 208 232 245 271 283 279 259 232 228 216 192 156 135 129 106 25 30 329
128 135 142 159 143 151 157 158 175 170 174 162 157 153 116 103 108 102 100 90 95 89 91 68 39 66 52 43 42 124 123 128 132 122 98 81 101 90 73 88 159 178 170 221 226 230 297 347 111 140 154 169 183 163 184 207 210 209 223 237 234 264 291 269 240 236 229 213 206 192 180 172 141 208
143 134 156 157 148 162 172 166 168 170 161 172 166 158 148 135 128 184 171 164 142 144 174 155 160 114 65 352 90 91 107 152 166 139 133 137 146 146 150 148 131 115 115 23 352 31 56 16 125 156 153 203 189 171 218 193 214 216 212 225 259 244 235 271 296 307 282 243 234 237 228 197 194 183
160 152 155 164 153 159 169 176 152 151 142 143 147 158 157 148 162 190 254 225 198 193 191 191 172 209 160 179 102 69 282 281 78 88 134 129 134 140 165 146 119 69 43 342 89 349 357 52 33 33 219 213 184 206 212 189 214 197 214 215 233 233 229 208 216 248 250 271 247 224 227 232 245 255